Weather in Taipo

China     19°19′01″N   109°01′51″E
temp.,
°C
wind,
m/s
gust,
m/s
humid.,
%
clouds,
%
prec.,
mm/h
press.,
hPa
HPBL,
m
9 may, sun
sun923:00+25ese11825 0.0 100916
02:00+24nnw118014 0.0 100811
05:00+23se11845 0.0 100811
08:00+26sse22685 0.0 1010170
11:00+33ssw13345 0.0 1009910
14:00+37nw44285 0.0 10061881
17:00+31nnw33503 0.0 1006545
20:00+26e227011 0.0 100628
10 may, mon
mon1023:00+26se226988 0.0 100725
02:00+24sw1267100 0.0 100524
05:00+23se22715 0.0 100616
08:00+26se23675 0.0 1007213
11:00+34s23400 0.0 10071008
14:00+38ssw453213 0.0 10042674
17:00+36ssw34350 0.0 10031971
20:00+29sse23580 0.0 100554
11 may, tue
tue1123:00+27sse33620 0.0 100556
02:00+25s36730 0.0 1004151
05:00+25sse36790 0.0 1004144
08:00+29sse35614 0.0 1006241
11:00+35s57401 0.0 10061130
14:00+38ssw56320 0.0 10042643
17:00+36sw66395 0.0 10031590
20:00+30s36575 0.0 1005114
12 may, wed
wed1223:00+27s34685 0.0 100683
02:00+26sse347777 0.0 1004114
05:00+25sse247774 0.0 1004104
08:00+29sse346792 0.0 1006252
11:00+36ssw353993 0.0 10061346
14:00+36w4539100 0.1 10031703
17:00+33ne115111 0.1 1003544
20:00+29e23722 0.1 100448
13 may, thu
thu1323:00+28se22680 0.0 100532
02:00+26sse34750 0.0 1004116
05:00+25s2482100 0.0 1004112
08:00+28se23684 0.0 1006278
11:00+35sse01441 0.0 10061148
14:00+37nnw243854 0.0 10032208
17:00+32n446311 0.2 1003411
20:00+28ese11760 0.8 100424